This is the latest recevied weather packets stored in our database for station/object EA3ANS-1. If no packets are shown the sender has not sent any weather packets the latest 10 day(s).
| Time | Temp. | Humidity | Pressure | Rain* | Wind** | Luminosity | Snow |
|---|---|---|---|---|---|---|---|
| 1778047363 | 9.44° C | - | 1012.3 hPa | 0 mm | 3.13 m/s, 318° | - | - |
| 1778046766 | 10° C | - | 1012.2 hPa | 0 mm | 2.68 m/s, 321° | - | - |
| 1778046168 | 9.44° C | - | 1012.3 hPa | 0 mm | 1.79 m/s, 304° | - | - |
| 1778045567 | 8.89° C | - | 1012.1 hPa | 0 mm | 1.34 m/s, 339° | - | - |
| 1778044965 | 8.89° C | - | 1012 hPa | 0 mm | 1.79 m/s, 338° | - | - |
| 1778044366 | 8.89° C | - | 1012.1 hPa | 0 mm | 2.24 m/s, 300° | - | - |
| 1778043769 | 9.44° C | - | 1011.9 hPa | 0 mm | 2.24 m/s, 309° | - | - |
| 1778043171 | 9.44° C | - | 1011.8 hPa | 0 mm | 1.79 m/s, 326° | - | - |
| 1778042574 | 9.44° C | - | 1011.7 hPa | 0 mm | 1.79 m/s, 280° | - | - |
| 1778041974 | 9.44° C | - | 1011.9 hPa | 0 mm | 2.24 m/s, 359° | - | - |
| 1778041369 | 9.44° C | - | 1011.7 hPa | 0 mm | 2.24 m/s, 308° | - | - |
| 1778040765 | 9.44° C | - | 1011.6 hPa | 0 mm | 0.89 m/s, 314° | - | - |
| 1778040162 | 9.44° C | - | 1011.5 hPa | 0 mm | 0 m/s | - | - |
| 1778039562 | 9.44° C | - | 1011.6 hPa | 0 mm | 1.79 m/s, 281° | - | - |
| 1778038964 | 10° C | - | 1011.5 hPa | 0 mm | 2.24 m/s, 325° | - | - |
| 1778038367 | 10° C | - | 1011.4 hPa | 0 mm | 2.24 m/s, 314° | - | - |
| 1778037770 | 10° C | - | 1011.3 hPa | 0 mm | 1.79 m/s, 329° | - | - |
| 1778037162 | 10° C | - | 1011.3 hPa | 0 mm | 3.13 m/s, 338° | - | - |
| 1778036562 | 10° C | - | 1011.3 hPa | 0 mm | 0 m/s | - | - |
| 1778035962 | 10° C | - | 1011.3 hPa | 0 mm | 1.34 m/s, 309° | - | - |
| 1778035362 | 10.56° C | - | 1011.2 hPa | 0 mm | 1.79 m/s, 332° | - | - |
| 1778034762 | 10.56° C | - | 1011.2 hPa | 0 mm | 0 m/s | - | - |
| 1778034165 | 10.56° C | - | 1011.1 hPa | 0 mm | 1.34 m/s, 245° | - | - |
| 1778033568 | 10° C | - | 1011.1 hPa | 0 mm | 0 m/s | - | - |
| 1778032965 | 10° C | - | 1011 hPa | 0 mm | 0 m/s | - | - |
* Rain latest hour (hover to see other rain measurements)
** Current wind speed in m/s (hover to see current wind gust speed)